STARLINK-34103 (63962 NORAD) Tracking and Keplerian Element Data

This shows tracking and keplerian element data for the satellite.

Feedback or suggestion? Click here.




ElementValue
Catalog63962
NameSTARLINK-34103
Epoch Orbit3517
Epoch Day354.15975298
Epoch Year2025
RAAN265.3272
Inclination43.0061
Eccentricity0.0002995
Argument of Perigee246.0369
Mean Anonmoly114.0169
Mean Motion15.27618298
Decay Rate0.00022577
L11 63962U 25099L 25354.15975298 .00022577 00000+0 82642-3 0 9993
L22 63962 43.0061 265.3272 0002995 246.0369 114.0169 15.27618298 35171



Live tracking and technical data element details for STARLINK-34103 (NORAD 63962). STARLINK-34103 can be tracked NOW for your location showing map with azimuth and elevation plus other details from your city location.







IsCatalogInMostPopularTable: catalog: 63962, numindb: 2
Update: records affected: 1



GetName: 63962 STARLINK-34103

Hit Count: updated at: Sun, 08 Feb 2026 17:35:29 GMT